Location: Emory University Observatory
(33.7903°N, 84.3267°W)
Time: 20:32:03
(UTC-05:00)

Envisat - Pass Details

Date: 13 October 2017
Orbit: 764 x 766 km, 98.2° (Epoch: 12 December)

Event Time Altitude Azimuth Distance (km) Brightness Sun altitude
Exits shadow 22:37:13 11° 313° (NW) 2,264 6.0 -44.0°
Drops below altitude 10° 22:37:20 10° 314° (NW) 2,295 6.0 -44.0°
Sets 22:40:13 0° 330° (NNW) 3,237 6.8 -44.6°
